Погода в Прокудино

Россия / Калужская область     54°39′03″N   35°45′53″E
В апреле 2022 года жителям России запретили посещать сайт meteo.paraplan.net по решению Генеральной прокуратуры. Аудитория сайта уменьшилась в 10 раз. Владельцы сайта не видят смысла в поддержке погодного сервера в таких условиях. Сайт будет закрыт в октябре.
темп.,
°C
ветер,
м/с
пор.,
м/с
влажн.,
%
обл.,
%
осадки,
мм/ч
давл.,
гПа
погр.,
м
25 сентября, вс
вс2500:00+6зсз4795100 1.6 1000862
03:00+6зсз41095100 3.1 1000720
06:00+6зсз51095100 0.7 1000744
09:00+6зсз51095100 1.3 1002700
12:00+7зсз41095100 0.9 1003676
15:00+7зсз4795100 3.1 1004981
18:00+6зсз4894100 3.1 1006947
21:00+6зсз41096100 3.3 1007669
26 сентября, пн
пн2600:00+6з3896100 0.3 1008536
03:00+6з3896100 0.6 1009646
06:00+6з3895100 0.1 1009589
09:00+7з379396 0.2 1010600
12:00+9з4781100 0.0 1011881
15:00+10з357599 0.1 1011739
18:00+9юз228299 0.1 101131
21:00+8юз238696 0.1 101291
27 сентября, вт
вт2700:00+7зюз2385100 0.0 101166
03:00+7ююз1185100 0.0 101114
06:00+7ююв2288100 0.0 101147
09:00+9ю237663 0.0 1011285
12:00+13юв35595 0.0 10111000
15:00+14юв455658 0.1 10101462
18:00+11юв3873100 0.1 1010454
21:00+8в31184100 0.1 1009517
28 сентября, ср
ср2800:00+9всв41177100 0.0 1008685
03:00+8всв4986100 0.1 1006548
06:00+7в41295100 2.4 1005661
09:00+8в51297100 4.9 1003589
12:00+9в41097100 2.1 1002524
15:00+10в3998100 2.6 1000424
18:00+11в3899100 0.1 1000450
21:00+11юв3799100 0.3 1001359
29 сентября, чт
чт2900:00+11ююз2799100 0.3 1002350
03:00+9зюз3996100 0.3 1004437
06:00+9зюз4888100 0.0 1007634
09:00+10з388999 0.0 1009771
12:00+12з367982 0.0 1011813
15:00+14з2463100 0.0 10131108
18:00+11юв1179100 0.0 101510
21:00+10юв2285100 0.0 101722